This is the latest recevied weather packets stored in our database for station/object KF6FPU-15. If no packets are shown the sender has not sent any weather packets the latest 10 day(s).
| Time | Temp. | Humidity | Pressure | Rain* | Wind** | Luminosity | Snow |
|---|---|---|---|---|---|---|---|
| 1777528311 | 28.89° C | 19% | 1015 hPa | - | - | - | - |
| 1777527111 | 29.44° C | 19% | 1014.8 hPa | - | - | - | - |
| 1777526511 | 29.44° C | 19% | 1014.9 hPa | - | - | - | - |
| 1777525911 | 29.44° C | 19% | 1014.9 hPa | - | - | - | - |
| 1777525311 | 29.44° C | 19% | 1014.9 hPa | - | - | - | - |
| 1777524711 | 29.44° C | 19% | 1014.8 hPa | - | - | - | - |
| 1777524111 | 29.44° C | 19% | 1014.8 hPa | - | - | - | - |
| 1777523511 | 30° C | 19% | 1014.7 hPa | - | - | - | - |
| 1777522911 | 30° C | 19% | 1014.7 hPa | - | - | - | - |
| 1777522311 | 30° C | 19% | 1014.6 hPa | - | - | - | - |
| 1777521711 | 30° C | 19% | 1014.5 hPa | - | - | - | - |
| 1777520511 | 28.33° C | 18% | 1014.4 hPa | - | - | - | - |
| 1777519911 | 28.89° C | 18% | 1014.3 hPa | - | - | - | - |
| 1777519311 | 30° C | 18% | 1014.3 hPa | - | - | - | - |
| 1777518711 | 29.44° C | 18% | 1014.3 hPa | - | - | - | - |
| 1777518111 | 28.89° C | 18% | 1014.2 hPa | - | - | - | - |
| 1777517511 | 29.44° C | 18% | 1014.2 hPa | - | - | - | - |
| 1777516911 | 28.89° C | 18% | 1014.1 hPa | - | - | - | - |
| 1777516311 | 28.33° C | 18% | 1014.1 hPa | - | - | - | - |
| 1777515711 | 28.89° C | 18% | 1014.1 hPa | - | - | - | - |
| 1777515111 | 29.44° C | 18% | 1014.1 hPa | - | - | - | - |
| 1777513911 | 27.78° C | 18% | 1014.3 hPa | - | - | - | - |
| 1777513311 | 27.78° C | 18% | 1014.3 hPa | - | - | - | - |
| 1777512711 | 28.33° C | 18% | 1014.4 hPa | - | - | - | - |
| 1777512111 | 28.89° C | 18% | 1014.4 hPa | - | - | - | - |
* Rain since midnight (hover to see other rain measurements)
** Current wind speed in m/s (hover to see current wind gust speed)